SCP
0 -0 -0 -0 -0 -0 -0 -0 -0 -0 -0 0 0 0 0 0 0 0 0 0 0 0 0 0 0 0 0 0 0 0 0 -0
0 0 0 -0 -0 -0 -0 -0 -0 -0 -0 0 0 0 0 0 0 0 0 0 0 0 0 0 0 0 0 0 0 0 0 0
0 0 0 0 0 -0 -0 -0 -0 -0 0 0 0 0 0 0 0 0 0 0 0 0 0 0 0 0 0 0 0 0 0 0
0 0 0 0 0 0 -0 -0 -0 -0 0 0 0 0 0 0 0 0 0 0 0 0 0 0 0 0 0 0 0 0 0 0
1 0 0 0 0 0 0 0 0 0 0 0 0 0 0 0 0 0 0 0 0 0 0 0 0 0 0 0 0 0 0 0
1 1 0 0 0 0 0 0 0 0 0 0 0 0 0 0 0 0 0 0 0 0 0 0 1 0 1 1 0 0 0 0
1 1 0 0 0 0 0 0 0 0 0 0 0 0 0 0 0 0 0 0 0 0 1 1 1 1 1 1 0 0 0 0
1 1 1 1 0 0 0 0 0 0 0 0 0 0 0 0 0 0 0 0 0 0 0 1 1 1 1 1 0 0 0 0
0 1 2 1 0 0 0 0 0 0 0 0 0 0 0 0 0 0 0 0 0 0 0 0 0 1 1 0 0 0 0 0
0 1 2 1 0 0 0 0 0 0 0 0 0 0 0 0 0 0 0 0 0 0 0 0 0 0 0 0 0 0 0 1
0 0 0 0 0 0 0 0 1 1 1 0 0 0 0 0 0 0 0 0 0 0 0 0 0 0 0 0 0 0 0 1
0 0 0 0 0 4 1 1 2 2 1 1 1 1 0 0 0 0 0 0 0 0 0 0 0 0 0 0 1 0 0 0
0 0 0 0 1 1 1 1 1 2 4 3 2 2 1 1 0 1 0 0 0 0 0 0 0 0 0 1 1 0 1 1
0 0 0 1 3 2 3 3 2 2 2 2 2 2 3 2 1 1 2 1 0 0 0 0 0 0 0 0 1 0 1 1
0 0 0 1 5 4 5 4 4 3 3 3 2 2 3 4 3 2 2 2 2 1 1 1 0 0 0 1 1 0 1 1
1 1 1 1 4 3 1 4 4 3 1 1 1 1 2 6 5 5 4 2 2 1 1 1 1 0 1 0 0 1 1 0
0 0 1 0 1 1 1 0 0 0 0 0 0 1 3 6 7 5 3 3 2 1 1 1 1 1 1 0 0 1 1 0
0 0 0 0 0 1 1 1 1 1 1 1 2 2 5 5 6 5 3 2 1 1 1 1 1 0 0 0 1 1 0 0
0 0 0 0 0 0 0 1 1 1 1 0 2 5 6 6 5 3 2 1 1 1 1 1 1 0 1 0 1 0 0 0
Wind_Speed_500mb
67 65 60 55 49 45 42 40 39 36 34 32 29 27 26 23 20 17 15 13 12 9 7 4 2 1 5 6 8 9 8 10
69 66 61 55 49 45 41 39 37 37 35 32 31 29 27 25 22 19 17 17 15 14 11 8 8 7 5 4 5 6 6 3
74 69 62 56 50 46 42 39 37 37 36 35 33 32 30 29 27 26 24 23 22 21 20 17 16 15 11 10 9 7 9 9
71 70 64 58 52 47 44 41 38 37 37 37 36 35 35 35 34 34 32 31 30 30 27 25 24 22 17 17 14 8 8 9
70 68 65 61 56 52 48 44 41 39 39 39 39 39 41 40 42 41 40 39 36 37 35 31 30 30 25 24 20 10 5 8
53 65 65 62 59 53 50 46 43 42 41 42 44 45 46 49 49 47 48 46 44 45 42 39 37 37 34 31 26 15 7 8
58 52 61 59 58 55 52 49 45 45 43 45 47 47 50 53 54 52 54 53 51 52 50 47 45 44 43 39 31 21 11 3
67 56 62 59 54 53 53 52 51 49 48 48 51 50 55 56 59 58 60 60 58 58 59 56 54 54 52 45 36 29 18 12
76 69 61 57 52 45 45 44 42 42 38 38 39 43 53 58 61 61 62 62 60 58 57 56 58 59 58 52 40 36 28 22
46 72 76 62 42 30 40 39 38 37 38 38 41 41 45 47 48 46 51 53 54 56 53 46 45 53 61 53 42 32 37 27
37 43 76 56 43 37 45 38 35 36 40 45 46 42 43 47 49 46 46 44 49 52 51 42 40 40 42 44 38 27 36 30
30 49 48 45 58 78 62 45 37 39 45 49 46 42 47 53 56 54 54 45 43 49 50 47 42 37 36 38 40 35 31 35
55 40 27 22 41 53 61 47 42 42 50 59 59 55 55 56 60 59 64 57 45 45 53 56 43 41 39 42 45 40 35 41
49 46 63 58 55 46 54 46 40 40 46 55 55 55 63 69 68 67 71 61 50 46 55 54 55 46 44 44 51 41 41 45
63 52 56 60 58 55 54 40 46 44 48 51 53 55 54 62 65 67 68 59 52 51 52 58 57 58 53 40 44 41 44 48
73 69 64 59 57 60 56 61 65 64 59 58 59 64 64 65 63 66 66 57 53 54 55 51 53 57 54 54 43 42 43 48
82 76 74 71 69 65 58 52 60 62 67 68 70 63 64 56 60 64 64 56 52 53 59 52 55 52 51 50 48 46 43 46
84 89 81 76 73 72 62 54 56 68 76 71 65 50 55 55 57 63 60 52 49 51 52 55 52 53 53 51 43 37 15 15
71 76 81 68 58 63 63 59 58 63 74 70 59 53 59 61 59 59 55 49 47 43 42 49 45 52 48 48 39 47 44 22
Wind_Direction_500mb
162 155 158 160 166 169 173 178 180 182 184 185 189 194 197 199 199 199 197 199 202 203 198 189 203 14 23 14 14 28 65 106
165 163 165 166 173 175 178 184 188 194 198 200 203 208 212 215 217 216 219 223 223 226 231 229 247 261 277 301 329 342 6 72
170 170 173 174 181 183 185 191 195 201 207 210 213 219 223 228 229 232 231 232 233 235 236 233 239 246 254 265 272 307 338 343
177 174 177 181 185 191 193 196 202 209 215 218 222 227 230 235 238 238 239 237 236 239 239 237 240 242 243 253 261 285 326 335
183 181 182 187 190 195 199 201 205 214 221 225 228 233 238 239 242 241 242 241 241 243 244 242 243 246 243 246 254 253 286 325
186 189 190 193 195 197 205 205 210 216 223 230 233 235 240 243 245 245 247 245 244 246 246 244 246 248 246 246 250 243 278 309
190 199 195 197 200 200 210 212 218 224 229 235 240 241 245 247 250 250 253 250 248 249 248 246 246 248 248 248 250 243 263 229
196 197 202 204 208 208 216 219 223 229 235 242 248 253 254 253 254 254 254 252 249 248 248 248 247 247 250 252 254 251 236 186
202 204 200 205 207 213 219 223 226 228 234 243 253 256 257 256 257 256 260 261 257 254 253 254 255 255 255 256 257 260 239 218
174 197 197 199 202 233 237 238 241 246 256 260 257 257 259 258 259 260 258 260 266 263 258 254 261 260 258 256 258 256 243 226
173 157 191 187 207 233 241 237 243 249 256 258 258 261 267 270 274 272 270 259 264 263 262 260 259 270 264 254 248 254 235 236
221 243 195 211 232 232 230 227 236 251 255 252 252 257 264 272 277 280 277 262 263 263 257 261 256 255 257 253 249 246 232 245
228 226 220 202 201 212 214 220 229 245 250 245 246 250 254 265 271 274 274 267 264 258 248 248 254 250 252 251 248 243 253 256
228 232 229 227 200 209 221 231 245 244 240 243 245 247 243 250 256 263 266 264 260 255 241 242 246 252 252 246 241 240 247 249
241 236 220 210 210 212 223 229 240 244 246 249 254 259 258 251 254 260 260 255 253 257 241 237 241 238 247 247 236 247 247 257
258 233 228 224 228 225 225 234 244 249 256 259 263 265 264 259 252 259 257 250 251 251 240 238 238 238 240 243 242 246 254 261
252 235 228 231 230 233 234 240 242 247 252 260 265 266 264 254 251 251 249 250 253 250 234 234 234 236 238 239 242 245 251 263
260 239 226 218 221 235 243 236 241 246 254 257 257 256 250 248 248 251 251 250 255 244 232 231 236 234 238 235 232 229 221 229
252 235 223 222 225 239 244 244 246 253 255 255 255 251 238 241 246 247 250 253 250 225 229 232 233 233 235 240 234 233 236 252
Wind_Speed_850mb
67 65 60 55 49 45 42 40 39 36 34 32 29 27 26 23 20 17 15 13 12 9 7 4 2 1 5 6 8 9 8 10
69 66 61 55 49 45 41 39 37 37 35 32 31 29 27 25 22 19 17 17 15 14 11 8 8 7 5 4 5 6 6 3
74 69 62 56 50 46 42 39 37 37 36 35 33 32 30 29 27 26 24 23 22 21 20 17 16 15 11 10 9 7 9 9
71 70 64 58 52 47 44 41 38 37 37 37 36 35 35 35 34 34 32 31 30 30 27 25 24 22 17 17 14 8 8 9
70 68 65 61 56 52 48 44 41 39 39 39 39 39 41 40 42 41 40 39 36 37 35 31 30 30 25 24 20 10 5 8
53 65 65 62 59 53 50 46 43 42 41 42 44 45 46 49 49 47 48 46 44 45 42 39 37 37 34 31 26 15 7 8
58 52 61 59 58 55 52 49 45 45 43 45 47 47 50 53 54 52 54 53 51 52 50 47 45 44 43 39 31 21 11 3
67 56 62 59 54 53 53 52 51 49 48 48 51 50 55 56 59 58 60 60 58 58 59 56 54 54 52 45 36 29 18 12
76 69 61 57 52 45 45 44 42 42 38 38 39 43 53 58 61 61 62 62 60 58 57 56 58 59 58 52 40 36 28 22
46 72 76 62 42 30 40 39 38 37 38 38 41 41 45 47 48 46 51 53 54 56 53 46 45 53 61 53 42 32 37 27
37 43 76 56 43 37 45 38 35 36 40 45 46 42 43 47 49 46 46 44 49 52 51 42 40 40 42 44 38 27 36 30
30 49 48 45 58 78 62 45 37 39 45 49 46 42 47 53 56 54 54 45 43 49 50 47 42 37 36 38 40 35 31 35
55 40 27 22 41 53 61 47 42 42 50 59 59 55 55 56 60 59 64 57 45 45 53 56 43 41 39 42 45 40 35 41
49 46 63 58 55 46 54 46 40 40 46 55 55 55 63 69 68 67 71 61 50 46 55 54 55 46 44 44 51 41 41 45
63 52 56 60 58 55 54 40 46 44 48 51 53 55 54 62 65 67 68 59 52 51 52 58 57 58 53 40 44 41 44 48
73 69 64 59 57 60 56 61 65 64 59 58 59 64 64 65 63 66 66 57 53 54 55 51 53 57 54 54 43 42 43 48
82 76 74 71 69 65 58 52 60 62 67 68 70 63 64 56 60 64 64 56 52 53 59 52 55 52 51 50 48 46 43 46
84 89 81 76 73 72 62 54 56 68 76 71 65 50 55 55 57 63 60 52 49 51 52 55 52 53 53 51 43 37 15 15
71 76 81 68 58 63 63 59 58 63 74 70 59 53 59 61 59 59 55 49 47 43 42 49 45 52 48 48 39 47 44 22
Wind_Direction_850mb
162 155 158 160 166 169 173 178 180 182 184 185 189 194 197 199 199 199 197 199 202 203 198 189 203 14 23 14 14 28 65 106
165 163 165 166 173 175 178 184 188 194 198 200 203 208 212 215 217 216 219 223 223 226 231 229 247 261 277 301 329 342 6 72
170 170 173 174 181 183 185 191 195 201 207 210 213 219 223 228 229 232 231 232 233 235 236 233 239 246 254 265 272 307 338 343
177 174 177 181 185 191 193 196 202 209 215 218 222 227 230 235 238 238 239 237 236 239 239 237 240 242 243 253 261 285 326 335
183 181 182 187 190 195 199 201 205 214 221 225 228 233 238 239 242 241 242 241 241 243 244 242 243 246 243 246 254 253 286 325
186 189 190 193 195 197 205 205 210 216 223 230 233 235 240 243 245 245 247 245 244 246 246 244 246 248 246 246 250 243 278 309
190 199 195 197 200 200 210 212 218 224 229 235 240 241 245 247 250 250 253 250 248 249 248 246 246 248 248 248 250 243 263 229
196 197 202 204 208 208 216 219 223 229 235 242 248 253 254 253 254 254 254 252 249 248 248 248 247 247 250 252 254 251 236 186
202 204 200 205 207 213 219 223 226 228 234 243 253 256 257 256 257 256 260 261 257 254 253 254 255 255 255 256 257 260 239 218
174 197 197 199 202 233 237 238 241 246 256 260 257 257 259 258 259 260 258 260 266 263 258 254 261 260 258 256 258 256 243 226
173 157 191 187 207 233 241 237 243 249 256 258 258 261 267 270 274 272 270 259 264 263 262 260 259 270 264 254 248 254 235 236
221 243 195 211 232 232 230 227 236 251 255 252 252 257 264 272 277 280 277 262 263 263 257 261 256 255 257 253 249 246 232 245
228 226 220 202 201 212 214 220 229 245 250 245 246 250 254 265 271 274 274 267 264 258 248 248 254 250 252 251 248 243 253 256
228 232 229 227 200 209 221 231 245 244 240 243 245 247 243 250 256 263 266 264 260 255 241 242 246 252 252 246 241 240 247 249
241 236 220 210 210 212 223 229 240 244 246 249 254 259 258 251 254 260 260 255 253 257 241 237 241 238 247 247 236 247 247 257
258 233 228 224 228 225 225 234 244 249 256 259 263 265 264 259 252 259 257 250 251 251 240 238 238 238 240 243 242 246 254 261
252 235 228 231 230 233 234 240 242 247 252 260 265 266 264 254 251 251 249 250 253 250 234 234 234 236 238 239 242 245 251 263
260 239 226 218 221 235 243 236 241 246 254 257 257 256 250 248 248 251 251 250 255 244 232 231 236 234 238 235 232 229 221 229
252 235 223 222 225 239 244 244 246 253 255 255 255 251 238 241 246 247 250 253 250 225 229 232 233 233 235 240 234 233 236 252